QPF
0.02 0.02 0.02 0.02 0.02 0.03 0.03 0.04 0.04 0.05 0.05 0.04 0.02 0.03 0.03 0.03 0.03 0.03 0.03 0.02 0.02 0.01 0.01 0.01 0.01 0.01 0.02 0.04 0.06 0.06 0.05 0.05 0.04 0.04 0.03 0.02 0.01 0.02 0.03 0.03 0.04 0.05 0.05
0.02 0.02 0.02 0.02 0.02 0.02 0.02 0.02 0.03 0.03 0.05 0.06 0.04 0.03 0.03 0.03 0.03 0.03 0.03 0.02 0.02 0.02 0.01 0.01 0.01 0.02 0.03 0.05 0.07 0.08 0.07 0.07 0.06 0.05 0.04 0.03 0.02 0.02 0.02 0.03 0.04 0.04 0.05
0.02 0.02 0.01 0.01 0.01 0.01 0.01 0.02 0.02 0.02 0.03 0.04 0.05 0.04 0.03 0.03 0.03 0.04 0.04 0.03 0.02 0.02 0.02 0.02 0.02 0.03 0.04 0.05 0.06 0.07 0.07 0.07 0.07 0.07 0.06 0.04 0.02 0.02 0.02 0.03 0.04 0.05 0.06
0.02 0.01 0.01 0.01 0.01 0.01 0.01 0.01 0.01 0.01 0.01 0.02 0.03 0.04 0.03 0.02 0.02 0.02 0.03 0.03 0.04 0.03 0.02 0.02 0.03 0.03 0.04 0.05 0.07 0.07 0.07 0.07 0.06 0.06 0.06 0.05 0.03 0.03 0.03 0.03 0.04 0.05 0.06
0.01 0.01 0.01 0.01 0.00 0.00 0.00 0.01 0.01 0.01 0.01 0.01 0.02 0.03 0.03 0.03 0.02 0.02 0.02 0.02 0.03 0.03 0.03 0.03 0.03 0.03 0.03 0.04 0.05 0.06 0.06 0.06 0.06 0.06 0.06 0.05 0.04 0.03 0.03 0.03 0.03 0.04 0.05
0.01 0.01 0.01 0.01 0.00 0.00 0.00 0.01 0.01 0.01 0.01 0.01 0.01 0.02 0.02 0.03 0.03 0.02 0.02 0.02 0.02 0.02 0.02 0.02 0.02 0.03 0.02 0.03 0.04 0.05 0.05 0.05 0.05 0.05 0.05 0.04 0.04 0.03 0.02 0.03 0.03 0.04 0.04
0.01 0.01 0.01 0.01 0.00 0.00 0.00 0.01 0.01 0.01 0.01 0.01 0.02 0.02 0.01 0.01 0.02 0.02 0.02 0.02 0.02 0.02 0.02 0.01 0.01 0.01 0.01 0.02 0.03 0.04 0.05 0.05 0.04 0.04 0.04 0.03 0.02 0.02 0.02 0.02 0.03 0.03 0.03
0.01 0.01 0.01 0.01 0.00 0.00 0.01 0.01 0.01 0.01 0.01 0.01 0.02 0.02 0.02 0.02 0.02 0.02 0.02 0.02 0.01 0.01 0.01 0.01 0.01 0.01 0.01 0.02 0.03 0.03 0.03 0.03 0.03 0.03 0.03 0.02 0.01 0.01 0.02 0.02 0.03 0.04 0.04
0.00 0.01 0.01 0.01 0.01 0.00 0.01 0.01 0.01 0.01 0.01 0.01 0.02 0.02 0.02 0.02 0.02 0.02 0.02 0.02 0.01 0.01 0.01 0.01 0.01 0.01 0.01 0.02 0.04 0.04 0.03 0.02 0.02 0.03 0.03 0.03 0.03 0.03 0.03 0.04 0.04 0.05 0.06
0.00 0.01 0.01 0.01 0.01 0.01 0.01 0.01 0.01 0.01 0.01 0.01 0.01 0.02 0.02 0.02 0.03 0.03 0.02 0.02 0.01 0.01 0.01 0.01 0.01 0.01 0.01 0.03 0.04 0.04 0.03 0.02 0.02 0.03 0.03 0.03 0.03 0.04 0.04 0.04 0.04 0.05 0.05
0.00 0.01 0.01 0.01 0.01 0.01 0.01 0.01 0.01 0.01 0.01 0.01 0.01 0.02 0.02 0.02 0.03 0.02 0.02 0.02 0.02 0.01 0.01 0.01 0.01 0.01 0.01 0.03 0.04 0.04 0.03 0.03 0.04 0.03 0.03 0.04 0.05 0.05 0.06 0.05 0.04 0.04 0.04
0.01 0.01 0.01 0.01 0.01 0.01 0.01 0.01 0.01 0.01 0.01 0.01 0.01 0.01 0.02 0.02 0.02 0.02 0.02 0.02 0.02 0.03 0.02 0.01 0.01 0.01 0.02 0.03 0.04 0.03 0.03 0.04 0.04 0.05 0.05 0.05 0.05 0.06 0.07 0.06 0.06 0.05 0.04
0.01 0.02 0.02 0.02 0.02 0.02 0.02 0.02 0.01 0.01 0.01 0.01 0.01 0.01 0.02 0.02 0.02 0.02 0.02 0.03 0.03 0.03 0.02 0.02 0.03 0.03 0.03 0.03 0.03 0.04 0.04 0.04 0.05 0.05 0.05 0.04 0.04 0.05 0.05 0.05 0.06 0.07 0.07
0.02 0.02 0.02 0.02 0.02 0.02 0.02 0.02 0.02 0.02 0.02 0.01 0.01 0.01 0.01 0.01 0.01 0.02 0.02 0.02 0.03 0.04 0.03 0.03 0.03 0.04 0.03 0.04 0.04 0.04 0.04 0.05 0.05 0.05 0.04 0.04 0.04 0.04 0.05 0.05 0.06 0.07 0.08
0.03 0.02 0.02 0.02 0.02 0.02 0.02 0.02 0.02 0.02 0.02 0.02 0.02 0.02 0.02 0.02 0.02 0.02 0.02 0.03 0.04 0.04 0.04 0.04 0.04 0.04 0.04 0.04 0.04 0.05 0.05 0.05 0.05 0.05 0.05 0.05 0.05 0.05 0.06 0.05 0.05 0.06 0.06
0.02 0.02 0.02 0.02 0.02 0.02 0.02 0.02 0.02 0.02 0.02 0.02 0.03 0.03 0.03 0.02 0.02 0.03 0.03 0.03 0.03 0.03 0.04 0.04 0.04 0.04 0.04 0.04 0.04 0.05 0.05 0.05 0.05 0.05 0.06 0.06 0.06 0.07 0.07 0.07 0.07 0.07 0.07
0.02 0.02 0.02 0.02 0.02 0.02 0.02 0.02 0.02 0.02 0.02 0.02 0.02 0.02 0.03 0.03 0.03 0.03 0.03 0.03 0.03 0.04 0.04 0.04 0.03 0.04 0.04 0.04 0.04 0.04 0.05 0.04 0.04 0.05 0.06 0.06 0.06 0.07 0.08 0.08 0.08 0.08 0.08
0.02 0.02 0.02 0.01 0.01 0.01 0.01 0.01 0.01 0.01 0.02 0.02 0.02 0.02 0.02 0.03 0.03 0.02 0.02 0.03 0.03 0.03 0.03 0.03 0.03 0.03 0.03 0.04 0.04 0.04 0.05 0.05 0.05 0.05 0.06 0.07 0.07 0.07 0.07 0.07 0.07 0.07 0.07
0.01 0.01 0.01 0.01 0.01 0.01 0.01 0.01 0.01 0.01 0.01 0.01 0.01 0.02 0.02 0.02 0.02 0.02 0.02 0.03 0.03 0.02 0.02 0.02 0.03 0.03 0.03 0.03 0.04 0.05 0.05 0.06 0.05 0.05 0.06 0.06 0.07 0.07 0.07 0.07 0.06 0.06 0.07
0.01 0.01 0.01 0.01 0.01 0.01 0.01 0.01 0.01 0.01 0.01 0.01 0.01 0.01 0.01 0.02 0.02 0.02 0.03 0.03 0.02 0.02 0.02 0.02 0.03 0.03 0.03 0.03 0.04 0.05 0.06 0.06 0.05 0.05 0.05 0.05 0.06 0.07 0.07 0.06 0.06 0.06 0.06
0.01 0.01 0.01 0.01 0.01 0.01 0.01 0.01 0.01 0.01 0.01 0.01 0.01 0.01 0.02 0.02 0.02 0.02 0.02 0.02 0.03 0.03 0.02 0.02 0.02 0.03 0.03 0.03 0.03 0.04 0.05 0.05 0.05 0.05 0.05 0.05 0.05 0.06 0.06 0.06 0.06 0.06 0.06
0.01 0.01 0.01 0.01 0.01 0.01 0.01 0.01 0.01 0.01 0.01 0.01 0.01 0.01 0.02 0.02 0.02 0.02 0.02 0.02 0.02 0.03 0.03 0.03 0.03 0.03 0.03 0.03 0.03 0.04 0.04 0.04 0.05 0.05 0.05 0.05 0.05 0.05 0.05 0.05 0.05 0.05 0.05
0.01 0.01 0.01 0.01 0.01 0.01 0.01 0.01 0.01 0.01 0.01 0.01 0.01 0.01 0.02 0.02 0.02 0.02 0.03 0.03 0.02 0.03 0.03 0.03 0.03 0.03 0.03 0.03 0.03 0.04 0.04 0.03 0.03 0.04 0.04 0.05 0.05 0.05 0.05 0.05 0.05 0.04 0.04
0.01 0.01 0.01 0.01 0.01 0.01 0.01 0.01 0.01 0.01 0.01 0.01 0.01 0.01 0.02 0.02 0.02 0.02 0.02 0.03 0.03 0.03 0.03 0.03 0.03 0.03 0.03 0.03 0.03 0.03 0.03 0.03 0.03 0.04 0.04 0.04 0.04 0.04 0.04 0.04 0.04 0.04 0.04
0.01 0.01 0.01 0.01 0.01 0.01 0.01 0.01 0.01 0.01 0.01 0.01 0.01 0.01 0.01 0.02 0.02 0.02 0.02 0.02 0.02 0.02 0.02 0.02 0.02 0.02 0.02 0.02 0.02 0.02 0.03 0.03 0.04 0.04 0.04 0.04 0.04 0.04 0.04 0.04 0.04 0.04 0.04
0.01 0.01 0.01 0.01 0.01 0.01 0.01 0.01 0.01 0.01 0.01 0.01 0.01 0.01 0.01 0.01 0.01 0.02 0.02 0.02 0.02 0.02 0.02 0.02 0.02 0.02 0.02 0.02 0.03 0.02 0.03 0.03 0.03 0.04 0.04 0.05 0.04 0.03 0.03 0.04 0.03 0.03 0.03
MSLP
1034.68 1034.26 1033.84 1033.43 1033.06 1032.73 1032.42 1032.13 1031.84 1031.55 1031.25 1030.95 1030.67 1030.40 1030.16 1029.96 1029.80 1029.67 1029.56 1029.46 1029.36 1029.26 1029.14 1029.02 1028.90 1028.78 1028.67 1028.57 1028.48 1028.41 1028.35 1028.29 1028.22 1028.13 1028.01 1027.86 1027.67 1027.44 1027.18 1026.90 1026.61 1026.33 1026.07
1034.72 1034.28 1033.85 1033.45 1033.09 1032.79 1032.52 1032.27 1032.02 1031.76 1031.50 1031.22 1030.95 1030.68 1030.44 1030.23 1030.05 1029.89 1029.75 1029.61 1029.46 1029.30 1029.12 1028.93 1028.73 1028.54 1028.36 1028.21 1028.08 1027.99 1027.93 1027.88 1027.85 1027.81 1027.76 1027.69 1027.60 1027.47 1027.33 1027.16 1026.98 1026.80 1026.63
1034.62 1034.18 1033.76 1033.37 1033.05 1032.78 1032.55 1032.34 1032.14 1031.92 1031.68 1031.43 1031.17 1030.91 1030.67 1030.45 1030.25 1030.07 1029.89 1029.72 1029.53 1029.31 1029.08 1028.82 1028.56 1028.30 1028.06 1027.86 1027.69 1027.57 1027.49 1027.44 1027.42 1027.41 1027.41 1027.40 1027.38 1027.34 1027.29 1027.22 1027.14 1027.06 1026.97
1034.41 1033.98 1033.58 1033.23 1032.94 1032.71 1032.53 1032.36 1032.19 1032.01 1031.79 1031.55 1031.30 1031.04 1030.79 1030.56 1030.35 1030.15 1029.95 1029.74 1029.52 1029.27 1028.99 1028.69 1028.38 1028.07 1027.78 1027.53 1027.32 1027.16 1027.05 1026.98 1026.95 1026.95 1026.96 1026.98 1027.00 1027.02 1027.04 1027.06 1027.06 1027.06 1027.05
1034.09 1033.71 1033.34 1033.03 1032.79 1032.60 1032.46 1032.32 1032.18 1032.02 1031.82 1031.59 1031.33 1031.07 1030.81 1030.56 1030.33 1030.11 1029.89 1029.66 1029.42 1029.14 1028.84 1028.51 1028.17 1027.82 1027.50 1027.21 1026.97 1026.77 1026.62 1026.52 1026.46 1026.43 1026.42 1026.44 1026.47 1026.52 1026.58 1026.65 1026.72 1026.80 1026.87
1033.70 1033.36 1033.06 1032.80 1032.61 1032.46 1032.35 1032.25 1032.12 1031.97 1031.77 1031.53 1031.26 1030.99 1030.71 1030.44 1030.19 1029.95 1029.71 1029.47 1029.20 1028.91 1028.59 1028.25 1027.89 1027.53 1027.19 1026.88 1026.60 1026.37 1026.18 1026.03 1025.93 1025.85 1025.80 1025.78 1025.80 1025.84 1025.91 1026.02 1026.15 1026.29 1026.43
1033.24 1032.97 1032.73 1032.54 1032.40 1032.30 1032.22 1032.14 1032.02 1031.87 1031.66 1031.41 1031.12 1030.82 1030.52 1030.23 1029.95 1029.68 1029.42 1029.16 1028.88 1028.58 1028.25 1027.90 1027.53 1027.16 1026.81 1026.48 1026.18 1025.92 1025.69 1025.50 1025.34 1025.21 1025.11 1025.04 1025.01 1025.03 1025.09 1025.21 1025.38 1025.57 1025.79
1032.73 1032.54 1032.38 1032.26 1032.18 1032.13 1032.08 1032.01 1031.90 1031.73 1031.51 1031.24 1030.93 1030.60 1030.27 1029.95 1029.64 1029.35 1029.06 1028.78 1028.47 1028.15 1027.81 1027.45 1027.08 1026.71 1026.35 1026.01 1025.70 1025.41 1025.15 1024.92 1024.70 1024.52 1024.35 1024.23 1024.14 1024.12 1024.16 1024.28 1024.46 1024.70 1024.98
1032.18 1032.08 1032.00 1031.95 1031.93 1031.92 1031.90 1031.84 1031.73 1031.55 1031.32 1031.03 1030.69 1030.34 1029.98 1029.64 1029.30 1028.98 1028.66 1028.35 1028.02 1027.68 1027.32 1026.95 1026.57 1026.19 1025.82 1025.47 1025.15 1024.85 1024.57 1024.30 1024.05 1023.81 1023.59 1023.40 1023.26 1023.19 1023.19 1023.28 1023.46 1023.72 1024.04
1031.61 1031.59 1031.59 1031.61 1031.65 1031.67 1031.67 1031.62 1031.51 1031.33 1031.08 1030.77 1030.42 1030.06 1029.68 1029.31 1028.95 1028.60 1028.26 1027.91 1027.56 1027.19 1026.81 1026.42 1026.03 1025.65 1025.27 1024.92 1024.59 1024.28 1023.98 1023.70 1023.41 1023.13 1022.86 1022.62 1022.42 1022.29 1022.24 1022.29 1022.44 1022.70 1023.05
1031.04 1031.09 1031.16 1031.24 1031.31 1031.36 1031.37 1031.33 1031.21 1031.02 1030.77 1030.46 1030.10 1029.73 1029.34 1028.97 1028.59 1028.23 1027.87 1027.50 1027.13 1026.74 1026.34 1025.93 1025.53 1025.14 1024.76 1024.41 1024.08 1023.76 1023.46 1023.16 1022.85 1022.54 1022.23 1021.94 1021.68 1021.48 1021.37 1021.36 1021.47 1021.70 1022.03
1030.47 1030.58 1030.69 1030.81 1030.90 1030.96 1030.98 1030.92 1030.80 1030.61 1030.35 1030.04 1029.70 1029.33 1028.96 1028.58 1028.22 1027.85 1027.49 1027.11 1026.73 1026.33 1025.93 1025.51 1025.11 1024.71 1024.34 1023.99 1023.67 1023.36 1023.05 1022.74 1022.42 1022.09 1021.75 1021.41 1021.09 1020.83 1020.64 1020.56 1020.59 1020.75 1021.05
1029.89 1030.04 1030.18 1030.30 1030.40 1030.46 1030.46 1030.39 1030.26 1030.06 1029.81 1029.51 1029.18 1028.83 1028.48 1028.13 1027.78 1027.44 1027.09 1026.73 1026.36 1025.98 1025.58 1025.18 1024.79 1024.41 1024.05 1023.71 1023.40 1023.10 1022.80 1022.50 1022.17 1021.82 1021.44 1021.06 1020.69 1020.35 1020.08 1019.90 1019.85 1019.93 1020.14
1029.30 1029.46 1029.60 1029.71 1029.79 1029.82 1029.80 1029.71 1029.56 1029.36 1029.11 1028.83 1028.52 1028.21 1027.89 1027.58 1027.27 1026.97 1026.66 1026.34 1026.00 1025.65 1025.29 1024.92 1024.56 1024.21 1023.88 1023.58 1023.29 1023.00 1022.72 1022.42 1022.09 1021.73 1021.33 1020.90 1020.47 1020.06 1019.71 1019.43 1019.27 1019.24 1019.35
1028.66 1028.81 1028.94 1029.02 1029.07 1029.06 1029.01 1028.90 1028.74 1028.53 1028.29 1028.02 1027.74 1027.46 1027.19 1026.92 1026.66 1026.41 1026.15 1025.89 1025.61 1025.32 1025.02 1024.71 1024.41 1024.11 1023.82 1023.56 1023.30 1023.04 1022.78 1022.49 1022.16 1021.79 1021.37 1020.91 1020.43 1019.95 1019.51 1019.13 1018.86 1018.71 1018.71
1027.96 1028.09 1028.18 1028.23 1028.24 1028.20 1028.11 1027.97 1027.80 1027.59 1027.36 1027.11 1026.86 1026.61 1026.38 1026.16 1025.96 1025.76 1025.57 1025.38 1025.17 1024.95 1024.73 1024.50 1024.26 1024.03 1023.81 1023.59 1023.38 1023.16 1022.92 1022.65 1022.33 1021.95 1021.52 1021.03 1020.51 1019.97 1019.45 1018.99 1018.61 1018.35 1018.24
1027.16 1027.26 1027.32 1027.34 1027.32 1027.25 1027.14 1026.99 1026.81 1026.61 1026.38 1026.15 1025.93 1025.71 1025.52 1025.34 1025.18 1025.04 1024.91 1024.78 1024.65 1024.52 1024.38 1024.23 1024.08 1023.93 1023.78 1023.62 1023.46 1023.29 1023.08 1022.83 1022.53 1022.16 1021.72 1021.21 1020.66 1020.08 1019.50 1018.96 1018.50 1018.14 1017.92
1026.27 1026.35 1026.39 1026.39 1026.35 1026.27 1026.15 1026.01 1025.83 1025.63 1025.42 1025.21 1025.00 1024.81 1024.64 1024.49 1024.37 1024.27 1024.19 1024.12 1024.05 1023.99 1023.93 1023.87 1023.80 1023.73 1023.66 1023.57 1023.47 1023.34 1023.18 1022.96 1022.68 1022.33 1021.90 1021.39 1020.83 1020.22 1019.61 1019.02 1018.49 1018.05 1017.74
1025.30 1025.37 1025.40 1025.40 1025.36 1025.29 1025.18 1025.05 1024.89 1024.71 1024.51 1024.32 1024.12 1023.94 1023.78 1023.65 1023.54 1023.47 1023.42 1023.39 1023.37 1023.37 1023.38 1023.39 1023.39 1023.40 1023.40 1023.38 1023.34 1023.27 1023.15 1022.98 1022.73 1022.41 1022.00 1021.51 1020.96 1020.35 1019.72 1019.10 1018.53 1018.04 1017.66
1024.27 1024.34 1024.39 1024.40 1024.38 1024.33 1024.25 1024.14 1024.00 1023.84 1023.66 1023.47 1023.29 1023.11 1022.95 1022.82 1022.71 1022.64 1022.60 1022.59 1022.61 1022.65 1022.70 1022.77 1022.84 1022.91 1022.97 1023.02 1023.04 1023.03 1022.97 1022.84 1022.64 1022.36 1021.99 1021.53 1021.00 1020.42 1019.80 1019.18 1018.59 1018.06 1017.64
1023.23 1023.31 1023.37 1023.40 1023.41 1023.38 1023.33 1023.25 1023.13 1022.99 1022.82 1022.65 1022.46 1022.28 1022.11 1021.97 1021.86 1021.78 1021.74 1021.73 1021.76 1021.82 1021.90 1022.01 1022.12 1022.24 1022.36 1022.47 1022.55 1022.59 1022.59 1022.52 1022.38 1022.15 1021.83 1021.42 1020.93 1020.38 1019.79 1019.19 1018.61 1018.08 1017.64
1022.19 1022.28 1022.35 1022.40 1022.43 1022.43 1022.40 1022.33 1022.23 1022.10 1021.94 1021.77 1021.58 1021.40 1021.22 1021.07 1020.94 1020.85 1020.80 1020.78 1020.81 1020.88 1020.98 1021.10 1021.25 1021.41 1021.57 1021.73 1021.86 1021.96 1022.02 1022.01 1021.93 1021.76 1021.50 1021.15 1020.72 1020.22 1019.67 1019.11 1018.55 1018.03 1017.59
1021.16 1021.24 1021.31 1021.37 1021.41 1021.41 1021.38 1021.32 1021.22 1021.09 1020.94 1020.76 1020.57 1020.38 1020.20 1020.04 1019.91 1019.81 1019.75 1019.73 1019.75 1019.82 1019.92 1020.06 1020.22 1020.41 1020.61 1020.80 1020.98 1021.14 1021.25 1021.30 1021.28 1021.18 1020.99 1020.70 1020.34 1019.90 1019.41 1018.89 1018.37 1017.88 1017.46
1020.12 1020.18 1020.23 1020.28 1020.29 1020.28 1020.23 1020.15 1020.04 1019.90 1019.74 1019.56 1019.37 1019.19 1019.01 1018.86 1018.73 1018.64 1018.58 1018.56 1018.59 1018.66 1018.76 1018.90 1019.08 1019.28 1019.50 1019.73 1019.95 1020.14 1020.30 1020.41 1020.45 1020.42 1020.29 1020.08 1019.78 1019.40 1018.97 1018.51 1018.04 1017.60 1017.21
1019.05 1019.07 1019.09 1019.08 1019.06 1019.00 1018.92 1018.80 1018.66 1018.50 1018.33 1018.15 1017.97 1017.80 1017.65 1017.52 1017.41 1017.34 1017.30 1017.30 1017.33 1017.41 1017.52 1017.67 1017.85 1018.06 1018.29 1018.54 1018.78 1019.01 1019.21 1019.37 1019.46 1019.48 1019.42 1019.27 1019.04 1018.73 1018.37 1017.97 1017.56 1017.17 1016.82
1017.94 1017.91 1017.86 1017.80 1017.71 1017.60 1017.46 1017.30 1017.12 1016.93 1016.74 1016.57 1016.40 1016.26 1016.14 1016.05 1015.98 1015.95 1015.94 1015.97 1016.02 1016.11 1016.23 1016.38 1016.57 1016.78 1017.02 1017.27 1017.53 1017.78 1018.01 1018.19 1018.33 1018.40 1018.39 1018.30 1018.14 1017.90 1017.61 1017.28 1016.93 1016.60 1016.30
Thickness
5439 5439 5438 5439 5439 5440 5439 5438 5438 5438 5438 5438 5438 5437 5437 5436 5436 5436 5436 5436 5436 5437 5437 5437 5438 5438 5438 5439 5440 5441 5442 5442 5444 5448 5448 5451 5452 5453 5454 5455 5456 5457 5458
5425 5425 5425 5425 5425 5426 5426 5425 5425 5425 5424 5424 5424 5424 5424 5423 5423 5423 5423 5423 5424 5424 5424 5424 5424 5424 5425 5425 5426 5427 5428 5428 5429 5432 5434 5435 5437 5438 5439 5440 5441 5442 5443
5411 5411 5411 5411 5411 5412 5412 5412 5412 5411 5411 5411 5411 5410 5410 5410 5409 5409 5410 5410 5410 5411 5411 5411 5411 5410 5411 5410 5411 5412 5413 5415 5415 5415 5418 5420 5422 5423 5424 5424 5425 5426 5427
5397 5397 5397 5397 5397 5398 5398 5398 5398 5397 5397 5397 5397 5396 5396 5396 5396 5396 5396 5396 5396 5396 5397 5397 5396 5397 5397 5397 5398 5398 5399 5400 5400 5400 5402 5405 5406 5407 5407 5408 5409 5410 5411
5383 5383 5382 5382 5382 5383 5384 5383 5383 5383 5383 5382 5382 5382 5382 5382 5382 5382 5382 5382 5382 5382 5383 5382 5382 5383 5383 5384 5385 5385 5385 5385 5385 5385 5387 5389 5390 5390 5392 5392 5393 5394 5395
5368 5368 5368 5368 5368 5369 5369 5369 5369 5369 5368 5367 5367 5367 5367 5367 5368 5368 5368 5368 5368 5368 5369 5368 5369 5369 5369 5371 5372 5372 5372 5371 5371 5371 5372 5375 5376 5376 5376 5376 5375 5376 5379
5355 5354 5354 5354 5354 5355 5355 5355 5355 5354 5354 5353 5352 5352 5352 5352 5353 5354 5354 5354 5353 5354 5354 5354 5355 5356 5355 5355 5356 5357 5358 5358 5359 5359 5359 5361 5361 5362 5361 5360 5360 5361 5364
5341 5341 5340 5340 5340 5340 5341 5341 5340 5340 5339 5339 5338 5337 5338 5338 5338 5339 5339 5339 5339 5339 5339 5340 5340 5341 5341 5341 5342 5343 5343 5344 5345 5345 5346 5347 5347 5347 5346 5346 5345 5346 5347
5328 5328 5327 5326 5326 5326 5327 5326 5325 5325 5324 5324 5323 5323 5323 5323 5323 5324 5323 5323 5324 5325 5325 5326 5327 5327 5328 5328 5328 5328 5330 5331 5330 5331 5332 5332 5332 5332 5331 5329 5328 5328 5331
5315 5314 5313 5313 5312 5312 5312 5312 5311 5310 5310 5310 5309 5309 5308 5308 5308 5308 5308 5308 5309 5310 5310 5311 5313 5314 5314 5314 5314 5315 5315 5317 5316 5317 5317 5317 5317 5317 5316 5315 5315 5314 5315
5302 5300 5299 5298 5297 5297 5297 5297 5296 5295 5295 5294 5294 5294 5293 5293 5294 5294 5293 5293 5294 5294 5296 5297 5298 5299 5301 5301 5301 5302 5303 5302 5301 5301 5301 5301 5301 5301 5301 5301 5300 5300 5300
5288 5286 5285 5283 5283 5283 5282 5282 5281 5279 5279 5278 5278 5278 5279 5278 5278 5279 5279 5279 5279 5279 5281 5282 5284 5285 5286 5286 5287 5288 5288 5287 5285 5285 5285 5286 5286 5286 5286 5286 5285 5285 5286
5274 5272 5271 5269 5268 5268 5267 5266 5265 5264 5263 5263 5263 5264 5264 5264 5263 5264 5264 5264 5265 5265 5266 5267 5269 5270 5270 5270 5271 5272 5271 5269 5269 5269 5270 5271 5271 5270 5269 5269 5269 5269 5270
5259 5258 5257 5255 5254 5253 5252 5252 5251 5249 5248 5248 5248 5248 5248 5248 5248 5248 5248 5248 5250 5250 5251 5252 5253 5254 5254 5254 5254 5254 5253 5253 5253 5253 5254 5254 5254 5253 5253 5254 5254 5254 5254
5244 5243 5242 5241 5240 5238 5237 5236 5236 5235 5233 5233 5232 5231 5231 5232 5234 5234 5234 5234 5234 5235 5235 5235 5235 5236 5236 5236 5236 5236 5236 5236 5236 5237 5237 5237 5237 5237 5238 5238 5238 5238 5239
5230 5228 5227 5226 5224 5223 5222 5222 5221 5220 5220 5219 5218 5218 5218 5219 5220 5220 5220 5220 5220 5219 5218 5218 5219 5219 5220 5220 5220 5220 5220 5220 5220 5220 5220 5220 5221 5221 5222 5223 5223 5224 5225
5214 5212 5211 5210 5209 5208 5206 5205 5205 5205 5205 5204 5204 5204 5204 5205 5205 5205 5205 5205 5204 5203 5201 5202 5203 5203 5203 5203 5203 5203 5204 5204 5204 5204 5204 5204 5205 5206 5207 5208 5208 5209 5210
5199 5198 5196 5194 5193 5191 5190 5189 5188 5188 5188 5187 5188 5188 5188 5189 5189 5189 5189 5187 5186 5185 5185 5186 5187 5187 5187 5187 5187 5188 5188 5189 5189 5189 5189 5190 5190 5191 5192 5193 5194 5195 5197
5185 5182 5180 5178 5177 5176 5174 5173 5171 5170 5170 5169 5169 5170 5170 5171 5171 5171 5171 5169 5169 5170 5170 5170 5170 5171 5171 5172 5173 5173 5174 5174 5174 5174 5175 5175 5176 5177 5179 5180 5182 5183 5184
5170 5169 5167 5164 5162 5160 5159 5157 5156 5154 5153 5152 5151 5151 5152 5152 5152 5152 5153 5153 5154 5155 5155 5155 5155 5156 5157 5158 5159 5160 5160 5161 5161 5162 5162 5163 5164 5164 5166 5168 5170 5171 5172
5157 5154 5153 5150 5147 5145 5144 5142 5140 5138 5137 5136 5135 5135 5136 5135 5135 5136 5137 5138 5139 5140 5141 5141 5141 5142 5143 5144 5145 5146 5147 5148 5149 5149 5150 5151 5152 5153 5154 5156 5158 5160 5161
5143 5140 5138 5135 5133 5131 5129 5127 5125 5123 5122 5121 5120 5120 5121 5120 5121 5121 5123 5124 5125 5126 5128 5129 5129 5130 5130 5131 5132 5133 5134 5136 5137 5137 5138 5139 5140 5141 5143 5145 5147 5149 5149
5130 5127 5125 5122 5119 5118 5116 5113 5111 5109 5108 5107 5107 5106 5106 5106 5107 5108 5109 5111 5112 5113 5115 5116 5117 5118 5119 5120 5121 5122 5123 5124 5125 5126 5127 5128 5129 5131 5133 5135 5136 5138 5139
5118 5115 5112 5109 5107 5104 5101 5099 5098 5097 5096 5095 5094 5094 5094 5094 5095 5096 5097 5099 5100 5101 5102 5103 5105 5106 5108 5109 5110 5111 5113 5114 5115 5117 5118 5119 5120 5122 5123 5125 5127 5129 5130
5106 5103 5100 5097 5094 5092 5089 5087 5086 5084 5084 5083 5083 5083 5082 5083 5084 5085 5086 5087 5088 5089 5091 5092 5094 5096 5097 5099 5100 5102 5103 5105 5107 5108 5110 5111 5112 5113 5115 5117 5119 5120 5122
5094 5091 5088 5085 5083 5081 5078 5076 5075 5074 5072 5072 5072 5072 5072 5072 5073 5074 5075 5076 5077 5079 5081 5082 5084 5086 5088 5089 5091 5092 5094 5096 5098 5100 5102 5103 5104 5105 5107 5109 5111 5113 5114